This demonstration page uses our WeatherBlox Daily Observations layout. Learn more.

Left ArrowRight Arrow

Hourly Observations for October 14, 2020

Temp ( °F °C ) Dew Point ( °F °C ) Humidity (%) Winds ( mph kmh ) Pressure ( in mb ) Visibility ( mi km ) Precip ( " mm )
12:15 am 00:15 Clear 54 12 45 7 72 72 SSW 9 15 30.04 1017 10 16 N/A
12:35 am 00:35 Clear 54 12 45 7 72 72 SW 8 13 30.05 1018 10 16 N/A
12:55 am 00:55 Clear 54 12 43 6 67 67 SW 7 11 30.05 1018 10 16 N/A
1:15 am 01:15 Clear 54 12 43 6 67 67 WSW 6 9 30.06 1018 10 16 N/A
1:35 am 01:35 Clear 50 10 43 6 76 76 W 8 13 30.07 1018 10 16 N/A
1:55 am 01:55 Clear 48 9 43 6 82 82 W 7 11 30.08 1019 10 16 N/A
2:15 am 02:15 Clear 48 9 43 6 82 82 WSW 7 11 30.07 1018 10 16 N/A
2:35 am 02:35 Clear 48 9 43 6 82 82 W 8 13 30.07 1018 10 16 N/A
2:55 am 02:55 Clear 46 8 43 6 87 87 W 7 11 30.09 1019 10 16 N/A
3:15 am 03:15 Clear 45 7 43 6 93 93 W 7 11 30.09 1019 10 16 N/A
3:35 am 03:35 Clear 46 8 43 6 87 87 N N/A 30.08 1019 10 16 N/A
3:55 am 03:55 Clear 45 7 43 6 93 93 N N/A 30.08 1019 10 16 N/A
4:15 am 04:15 Clear 46 8 43 6 87 87 N N/A 30.08 1019 10 16 N/A
4:35 am 04:35 Clear 45 7 41 5 87 87 N N/A 30.07 1018 10 16 N/A
4:55 am 04:55 Clear 43 6 43 6 100 100 N N/A 30.07 1018 10 16 N/A
5:15 am 05:15 Clear 39 4 39 4 100 100 N N/A 30.08 1019 10 16 N/A
5:35 am 05:35 Clear 39 4 39 4 100 100 N N/A 30.08 1019 10 16 N/A
5:55 am 05:55 Clear 41 5 41 5 100 100 N N/A 30.08 1019 10 16 N/A
6:15 am 06:15 Clear 41 5 41 5 100 100 SSE 3 6 30.09 1019 10 16 N/A
6:35 am 06:35 Clear 43 6 43 6 100 100 SSE 5 7 30.09 1019 10 16 N/A
6:55 am 06:55 Clear 43 6 43 6 100 100 N N/A 30.09 1019 10 16 N/A
7:15 am 07:15 Clear 41 5 41 5 100 100 N N/A 30.09 1019 10 16 N/A
7:55 am 07:55 Sunny 39 4 39 4 100 100 ESE 3 6 30.07 1018 10 16 N/A
8:15 am 08:15 Sunny 41 5 41 5 100 100 N N/A 30.08 1019 10 16 N/A
8:35 am 08:35 Sunny 43 6 43 6 100 100 S 3 6 30.08 1019 10 16 N/A
8:55 am 08:55 Sunny 46 8 46 8 100 100 S 3 6 30.08 1019 10 16 N/A
9:15 am 09:15 Sunny 46 8 46 8 100 100 N N/A 30.08 1019 10 16 N/A
9:35 am 09:35 Sunny 50 10 46 8 88 88 SSE 3 6 30.06 1018 10 16 N/A
9:55 am 09:55 Sunny 52 11 48 9 88 88 N N/A 30.07 1018 10 16 N/A
10:15 am 10:15 Sunny 54 12 48 9 82 82 SSE 5 7 30.06 1018 10 16 N/A
10:35 am 10:35 Sunny 57 14 46 8 67 67 SE 7 11 30.05 1018 10 16 N/A
10:55 am 10:55 Sunny 61 16 46 8 59 59 SE 9 15 30.03 1017 10 16 N/A
11:15 am 11:15 Sunny 63 17 46 8 56 56 SSE 13 20 30.01 1016 10 16 N/A
11:35 am 11:35 Sunny 63 17 46 8 56 56 SE 12 19 30.00 1016 10 16 N/A
11:55 am 11:55 Sunny 66 19 46 8 49 49 SSE 15 24 29.99 1016 10 16 N/A
12:15 pm 12:15 Sunny 68 20 46 8 46 46 S 15 24 29.98 1015 10 16 N/A
12:35 pm 12:35 Sunny 68 20 46 8 46 46 SSE 15 24 29.97 1015 10 16 N/A
12:55 pm 12:55 Sunny 68 20 48 9 49 49 S 14 22 29.96 1014 10 16 N/A
1:15 pm 13:15 Sunny 70 21 48 9 46 46 S 13 20 29.95 1014 10 16 N/A
1:35 pm 13:35 Sunny 72 22 50 10 47 47 S 14 22 29.92 1013 10 16 N/A
1:55 pm 13:55 Sunny 72 22 50 10 47 47 SSW 15 24 29.90 1013 10 16 N/A
2:15 pm 14:15 Sunny 75 24 50 10 41 41 S 17 28 29.89 1012 10 16 N/A
2:35 pm 14:35 Sunny 73 23 50 10 44 44 S 18 30 29.87 1011 10 16 N/A
2:55 pm 14:55 Sunny 73 23 50 10 44 44 S 16 26 29.86 1011 10 16 N/A
3:15 pm 15:15 Sunny 75 24 52 11 44 44 S 17 28 29.84 1010 10 16 N/A
3:35 pm 15:35 Sunny 73 23 50 10 44 44 S 20 31 29.82 1010 10 16 N/A
3:55 pm 15:55 Sunny 75 24 50 10 41 41 S 18 30 29.81 1009 10 16 N/A
4:15 pm 16:15 Sunny 77 25 48 9 36 36 SSW 20 31 29.78 1009 10 16 N/A
4:35 pm 16:35 Sunny 77 25 48 9 36 36 S 20 31 29.78 1009 10 16 N/A
4:55 pm 16:55 Sunny 77 25 50 10 39 39 S 17 28 29.77 1008 10 16 N/A
5:15 pm 17:15 Sunny 77 25 48 9 36 36 SSW 21 33 29.76 1008 10 16 N/A
5:35 pm 17:35 Sunny 77 25 46 8 34 34 S 17 28 29.75 1008 10 16 N/A
5:55 pm 17:55 Sunny 75 24 46 8 36 36 S 16 26 29.75 1007 10 16 N/A
6:15 pm 18:15 Sunny 75 24 46 8 36 36 S 20 31 29.74 1007 10 16 N/A
6:35 pm 18:35 Sunny 73 23 46 8 38 38 S 16 26 29.73 1007 10 16 N/A
6:55 pm 18:55 Sunny 73 23 46 8 38 38 S 14 22 29.73 1007 10 16 N/A
7:15 pm 19:15 Clear 72 22 46 8 41 41 S 14 22 29.72 1007 10 16 N/A
7:35 pm 19:35 Clear 70 21 45 7 40 40 S 16 26 29.72 1006 10 16 N/A
7:55 pm 19:55 Clear 70 21 46 8 43 43 S 15 24 29.71 1006 10 16 N/A
8:15 pm 20:15 Clear 70 21 46 8 43 43 S 17 28 29.70 1006 10 16 N/A
8:35 pm 20:35 Clear 68 20 46 8 46 46 S 15 24 29.70 1006 10 16 N/A
8:55 pm 20:55 Clear 68 20 46 8 46 46 S 15 24 29.70 1006 10 16 N/A
9:15 pm 21:15 Clear 68 20 46 8 46 46 S 16 26 29.70 1006 10 16 N/A
9:35 pm 21:35 Clear 68 20 46 8 46 46 S 14 22 29.69 1005 10 16 N/A
9:55 pm 21:55 Clear 66 19 46 8 49 49 S 12 19 29.70 1006 10 16 N/A
10:15 pm 22:15 Clear 66 19 46 8 49 49 S 12 19 29.70 1006 10 16 N/A
10:35 pm 22:35 Clear 64 18 46 8 52 52 S 8 13 29.71 1006 10 16 N/A
10:55 pm 22:55 Clear 64 18 46 8 52 52 S 9 15 29.71 1006 10 16 N/A
11:15 pm 23:15 Clear 63 17 46 8 56 56 S 6 9 29.73 1007 10 16 N/A
11:35 pm 23:35 Clear 63 17 46 8 56 56 S 7 11 29.73 1007 10 16 N/A
11:55 pm 23:55 Clear 63 17 46 8 56 56 S 7 11 29.73 1007 10 16 N/A

Powered by AerisWeather